sat.trackr.live / text

‹ back to catalog

STARLINK-1826

NORAD 46723 · 2020-073BF

PAYLOAD ACTIVE UNKNOWN

§ Identity

Operator
Country
US
Launch date
2020-10-18
Launch site
AFETR
Launch vehicle
Mass (kg)
RCS (m²)

Purposes: comms

External: N2YO · Heavens-Above · Gunter

§ Orbital elements

Epoch: 2026-05-25T01:22:12.511200Z

Period
91.44 min
Inclination
53.0425°
Eccentricity
0.0007988
Mean motion
15.74854007 rev/d
Perigee alt
339.7 km
Apogee alt
350.4 km
Semi-major
6,723.2 km
B*
6.9223e-4
RAAN
164.0138°
Arg perigee
46.6163°
Mean anomaly
313.5520°
Rev number
30,997

§ Raw data

STARLINK-18261 46723U 20073BF  26145.05708925  .00105205  00000+0  69223-3 0  99952 46723  53.0425 164.0138 0007988  46.6163 313.5520 15.74854007309972

JSON: /api/v1/satellites/46723 · /tle

For live sub-satellite position, see the globe view (requires WebGL).

§ Visibility from observer

Set your observer location to see the next 7 days of passes ≥ 10°. The values pass through the URL so the page stays shareable.

No JS? Fill the form by hand. The geolocation button needs JavaScript.